• Em Portugal
  • Lista de países
  • Para 7 dias
  • Temperatura da água
  • Mapas de satélite
  • Mapa do tempo
  • Widgets de tempo
  • user-avatar
    Iniciar Sessão

    Previsão horária em Lezhe

    Hoje, 24 Abril, Terça-feira

    Tempo Temperatura Precipitação Vento Pressão Humidade
    00:00 +18°C° 0 mm 1 m/s 737 mmHg 79%
    01:00 +18°C° 0 mm 1 m/s 737 mmHg 82%
    02:00 +18°C° 0 mm 1 m/s 737 mmHg 82%
    03:00 +16°C° 0 mm 1 m/s 737 mmHg 82%
    04:00 +16°C° 0 mm 1 m/s 738 mmHg 83%
    05:00 +16°C° 0 mm 0 m/s 738 mmHg 78%
    06:00 +18°C° 0 mm 0 m/s 738 mmHg 73%
    07:00 +19°C° 0 mm 0 m/s 738 mmHg 68%
    08:00 +23°C° 0 mm 1 m/s 738 mmHg 61%
    09:00 +24°C° 0 mm 1 m/s 738 mmHg 54%
    10:00 +26°C° 0 mm 2 m/s 738 mmHg 47%
    11:00 +26°C° 0 mm 2 m/s 738 mmHg 46%
    12:00 +26°C° 0 mm 3 m/s 738 mmHg 45%
    13:00 +27°C° 0 mm 3 m/s 738 mmHg 43%
    14:00 +26°C° 0 mm 3 m/s 738 mmHg 46%
    15:00 +26°C° 0 mm 3 m/s 738 mmHg 49%
    16:00 +25°C° 0 mm 3 m/s 738 mmHg 52%
    17:00 +23°C° 0 mm 2 m/s 738 mmHg 62%
    18:00 +20°C° 0 mm 2 m/s 738 mmHg 72%
    19:00 +19°C° 0 mm 1 m/s 738 mmHg 83%
    20:00 +18°C° 0 mm 1 m/s 738 mmHg 84%
    21:00 +18°C° 0 mm 1 m/s 739 mmHg 85%
    22:00 +16°C° 0 mm 1 m/s 739 mmHg 87%
    23:00 +16°C° 0 mm 1 m/s 739 mmHg 83%

    Amanhã, 25 Abril, Quarta-feira

    Tempo Temperatura Precipitação Vento Pressão Humidade
    00:00 +16°C° 0 mm 1 m/s 739 mmHg 79%
    01:00 +15°C° 0 mm 1 m/s 739 mmHg 75%
    02:00 +15°C° 0 mm 1 m/s 739 mmHg 72%
    03:00 +15°C° 0 mm 1 m/s 739 mmHg 69%
    04:00 +15°C° 0 mm 1 m/s 739 mmHg 66%
    05:00 +16°C° 0 mm 1 m/s 739 mmHg 62%
    06:00 +19°C° 0 mm 1 m/s 739 mmHg 58%
    07:00 +20°C° 0 mm 1 m/s 739 mmHg 54%
    08:00 +22°C° 0 mm 1 m/s 739 mmHg 50%
    09:00 +23°C° 0 mm 1 m/s 739 mmHg 47%
    10:00 +25°C° 0 mm 1 m/s 739 mmHg 43%
    11:00 +25°C° 0,1 mm 2 m/s 739 mmHg 43%
    12:00 +26°C° 0,1 mm 2 m/s 739 mmHg 43%
    13:00 +26°C° 0,1 mm 2 m/s 738 mmHg 42%
    14:00 +26°C° 0,2 mm 2 m/s 738 mmHg 45%
    15:00 +25°C° 0,2 mm 2 m/s 738 mmHg 49%
    16:00 +25°C° 0,2 mm 3 m/s 737 mmHg 52%
    17:00 +23°C° 0,2 mm 2 m/s 737 mmHg 60%
    18:00 +21°C° 0,2 mm 1 m/s 737 mmHg 68%
    19:00 +19°C° 0,2 mm 1 m/s 737 mmHg 76%
    20:00 +19°C° 0,1 mm 1 m/s 737 mmHg 75%
    21:00 +19°C° 0,1 mm 1 m/s 738 mmHg 75%
    22:00 +18°C° 0,1 mm 1 m/s 738 mmHg 74%
    23:00 +18°C° 0 mm 1 m/s 738 mmHg 72%

    Depois de amanhã, 26 Abril, Quinta-feira

    Tempo Temperatura Precipitação Vento Pressão Humidade
    00:00 +18°C° 0 mm 1 m/s 738 mmHg 71%
    01:00 +18°C° 0 mm 1 m/s 737 mmHg 69%
    02:00 +16°C° 0 mm 1 m/s 737 mmHg 69%
    03:00 +16°C° 0 mm 1 m/s 737 mmHg 69%
    04:00 +16°C° 0 mm 1 m/s 737 mmHg 69%
    05:00 +18°C° 0 mm 1 m/s 737 mmHg 66%
    06:00 +20°C° 0 mm 1 m/s 737 mmHg 62%
    07:00 +21°C° 0 mm 1 m/s 737 mmHg 58%
    08:00 +23°C° 0 mm 1 m/s 737 mmHg 54%
    09:00 +25°C° 0 mm 1 m/s 737 mmHg 49%
    10:00 +26°C° 0 mm 1 m/s 737 mmHg 45%
    11:00 +26°C° 0,1 mm 2 m/s 736 mmHg 45%
    12:00 +27°C° 0,1 mm 2 m/s 736 mmHg 45%
    13:00 +27°C° 0,1 mm 3 m/s 736 mmHg 44%
    14:00 +27°C° 0,2 mm 3 m/s 735 mmHg 47%
    15:00 +26°C° 0,2 mm 2 m/s 735 mmHg 50%
    16:00 +26°C° 0,2 mm 2 m/s 735 mmHg 53%
    17:00 +24°C° 0,1 mm 2 m/s 735 mmHg 61%
    18:00 +22°C° 0,1 mm 1 m/s 735 mmHg 69%
    19:00 +20°C° 0,1 mm 1 m/s 735 mmHg 77%
    20:00 +19°C° 0 mm 1 m/s 735 mmHg 78%
    21:00 +19°C° 0 mm 1 m/s 736 mmHg 78%
    22:00 +18°C° 0 mm 1 m/s 736 mmHg 79%
    23:00 +18°C° 0 mm 1 m/s 736 mmHg 77%

    27 Abril, Sexta-feira

    Tempo Temperatura Precipitação Vento Pressão Humidade
    00:00 +18°C° 0 mm 1 m/s 736 mmHg 76%
    01:00 +18°C° 0 mm 1 m/s 736 mmHg 74%
    02:00 +16°C° 0 mm 1 m/s 736 mmHg 74%
    03:00 +16°C° 0 mm 1 m/s 736 mmHg 73%
    04:00 +16°C° 0 mm 2 m/s 736 mmHg 73%
    05:00 +17°C° 0 mm 2 m/s 736 mmHg 72%
    06:00 +19°C° 0 mm 2 m/s 737 mmHg 71%
    07:00 +20°C° 0 mm 2 m/s 737 mmHg 69%
    08:00 +22°C° 0 mm 3 m/s 737 mmHg 64%
    09:00 +24°C° 0 mm 3 m/s 737 mmHg 59%
    10:00 +26°C° 0 mm 3 m/s 737 mmHg 54%
    11:00 +27°C° 0 mm 3 m/s 737 mmHg 51%
    12:00 +27°C° 0 mm 3 m/s 736 mmHg 48%
    13:00 +28°C° 0 mm 2 m/s 736 mmHg 45%
    14:00 +28°C° 0 mm 3 m/s 736 mmHg 46%
    15:00 +28°C° 0 mm 3 m/s 736 mmHg 47%
    16:00 +28°C° 0 mm 3 m/s 735 mmHg 49%
    17:00 +26°C° 0,2 mm 2 m/s 736 mmHg 55%
    18:00 +24°C° 0,2 mm 2 m/s 736 mmHg 61%
    19:00 +21°C° 0,2 mm 2 m/s 736 mmHg 67%
    20:00 +20°C° 0,4 mm 2 m/s 736 mmHg 69%
    21:00 +20°C° 0,4 mm 2 m/s 736 mmHg 72%
    22:00 +19°C° 0,4 mm 2 m/s 737 mmHg 75%
    23:00 +19°C° 0,3 mm 2 m/s 737 mmHg 75%

    28 Abril, Sábado

    Tempo Temperatura Precipitação Vento Pressão Humidade
    00:00 +19°C° 0,3 mm 2 m/s 737 mmHg 76%
    01:00 +18°C° 0,3 mm 2 m/s 737 mmHg 77%
    02:00 +18°C° 0,2 mm 2 m/s 737 mmHg 77%
    03:00 +18°C° 0,2 mm 2 m/s 736 mmHg 77%
    04:00 +18°C° 0,2 mm 2 m/s 736 mmHg 78%
    05:00 +19°C° 0,2 mm 2 m/s 736 mmHg 75%
    06:00 +20°C° 0,2 mm 2 m/s 736 mmHg 73%
    07:00 +21°C° 0,2 mm 2 m/s 737 mmHg 70%
    08:00 +24°C° 0,1 mm 2 m/s 737 mmHg 63%
    09:00 +25°C° 0,1 mm 1 m/s 737 mmHg 55%
    10:00 +27°C° 0,1 mm 1 m/s 737 mmHg 47%
    11:00 +28°C° 0,2 mm 2 m/s 736 mmHg 45%
    12:00 +28°C° 0,2 mm 2 m/s 736 mmHg 43%
    13:00 +29°C° 0,2 mm 2 m/s 736 mmHg 41%
    14:00 +28°C° 0,3 mm 2 m/s 736 mmHg 45%
    15:00 +27°C° 0,3 mm 2 m/s 735 mmHg 49%
    16:00 +26°C° 0,3 mm 2 m/s 735 mmHg 54%
    17:00 +25°C° 0,7 mm 2 m/s 735 mmHg 59%
    18:00 +23°C° 0,7 mm 1 m/s 735 mmHg 64%
    19:00 +22°C° 0,7 mm 1 m/s 736 mmHg 69%
    20:00 +21°C° 0,4 mm 1 m/s 736 mmHg 71%
    21:00 +20°C° 0,4 mm 2 m/s 736 mmHg 72%
    22:00 +19°C° 0,4 mm 2 m/s 736 mmHg 73%
    23:00 +19°C° 0,1 mm 2 m/s 736 mmHg 73%

    29 Abril, Domingo

    Tempo Temperatura Precipitação Vento Pressão Humidade
    00:00 +19°C° 0,1 mm 2 m/s 736 mmHg 73%
    01:00 +18°C° 0,1 mm 2 m/s 736 mmHg 73%
    02:00 +18°C° 0,1 mm 2 m/s 736 mmHg 73%
    03:00 +18°C° 0,1 mm 2 m/s 736 mmHg 74%
    04:00 +18°C° 0,1 mm 2 m/s 736 mmHg 74%
    05:00 +19°C° 0,2 mm 2 m/s 736 mmHg 72%
    06:00 +20°C° 0,2 mm 2 m/s 736 mmHg 71%
    07:00 +21°C° 0,2 mm 2 m/s 736 mmHg 69%
    08:00 +23°C° 0,1 mm 2 m/s 736 mmHg 61%
    09:00 +25°C° 0,1 mm 1 m/s 736 mmHg 54%
    10:00 +27°C° 0,1 mm 1 m/s 736 mmHg 46%
    11:00 +27°C° 0,2 mm 1 m/s 735 mmHg 45%
    12:00 +28°C° 0,2 mm 2 m/s 735 mmHg 44%
    13:00 +28°C° 0,2 mm 2 m/s 735 mmHg 43%
    14:00 +27°C° 0,5 mm 2 m/s 735 mmHg 47%
    15:00 +27°C° 0,5 mm 2 m/s 734 mmHg 50%
    16:00 +26°C° 0,5 mm 2 m/s 734 mmHg 53%
    17:00 +24°C° 1 mm 2 m/s 734 mmHg 62%
    18:00 +21°C° 1 mm 2 m/s 735 mmHg 71%
    19:00 +19°C° 1 mm 2 m/s 735 mmHg 80%
    20:00 +19°C° 0,5 mm 2 m/s 735 mmHg 81%
    21:00 +18°C° 0,5 mm 2 m/s 735 mmHg 82%
    22:00 +18°C° 0,5 mm 2 m/s 735 mmHg 83%
    23:00 +18°C° 0,2 mm 2 m/s 735 mmHg 82%
    Mostrar mais